Regional Weather Roundup
Issued by NWS

Home | Current Version | Previous Version | Text Only | Print | Product List | Glossary Off
Versions: 1 2 3 4 5 6 7 8 9 10 11 12 13 14 15 16 17 18 19 20 21 22 23 24 25 26 27 28 29 30 31 32 33 34 35 36 37 38 39 40 41 42 43 44 45 46 47 48 49 50

000
ASUS44 KMEG 212300
RWRTN
TENNESSEE HOURLY STATE WEATHER ROUNDUP
NATIONAL WEATHER SERVICE MEMPHIS TN
600 PM CDT MON JUL 21 2014

TNZ002-004-019-021-049-052-054-088>092-220000-
WEST TENNESSEE

CITY           SKY/WX    TMP DP  RH WIND       PRES   REMARKS
MEMPHIS INTL   PTSUNNY   85  66  53 N7        30.04S
NWS MEMPHIS      N/A     82 N/A N/A MISG        N/A
JACKSON        MOSUNNY   86  67  52 N6        30.05R
DYERSBURG      SUNNY     82  63  51 NE6       30.06S
UNION CITY     SUNNY     84  66  54 CALM      30.05S
PARIS          SUNNY     84  68  58 CALM      30.06S
LEXINGTON      SUNNY     84  66  54 N5        30.04S
SAVANNAH       SUNNY     88  72  58 VRB3      30.04S HX  94
$$

TNZ008-025-027-028-033-062-065-066-220000-
NORTH MIDDLE TENNESSEE

CITY           SKY/WX    TMP DP  RH WIND       PRES   REMARKS
NASHVILLE      MOSUNNY   87  70  56 E6        30.04S HX  92
CLARKSVILLE    SUNNY     88  63  43 NE5       30.03F
COOKEVILLE     SUNNY     84  73  70 CALM      30.06S HX  91
CROSSVILLE     MOSUNNY   81  66  60 E5        30.12S
$$

TNZ061-075-076-078-094-096-097-220000-
SOUTH MIDDLE TENNESSEE

CITY           SKY/WX    TMP DP  RH WIND       PRES   REMARKS
FAYETTEVILLE   SUNNY     81  72  74 SE9       30.05S
TULLAHOMA      MOSUNNY   82  70  65 SE3       30.07S
WINCHESTER     CLOUDY    75  72  88 CALM      30.07S
MCMINNVILLE    SUNNY     84  73  70 NE6       30.06S HX  91
COLUMBIA       SUNNY     84  73  70 SE5       30.04R HX  91
SHELBYVILLE    MOSUNNY   84  73  70 VRB3      30.06S HX  91
$$

TNZ017-018-042-046-047-220000-
NORTHEAST TENNESSEE

CITY           SKY/WX    TMP DP  RH WIND       PRES   REMARKS
TRI CITIES     CLOUDY    79  65  62 S6        30.12R
ELIZABETHTON   CLEAR     75  66  73 E3        30.13S
$$

TNZ012-013-036-069-073-074-220000-
CENTRAL EAST TENNESSEE

CITY           SKY/WX    TMP DP  RH WIND       PRES   REMARKS
KNOXVILLE      CLOUDY    83  70  64 E6        30.05S
OAK RIDGE      PTSUNNY   87  69  54 CALM      30.06F HX  91
GATLINBURG     MOCLDY    82  72  69 CALM      30.06S
$$

TNZ083-085-099-220000-
SOUTHEAST TENNESSEE

CITY           SKY/WX    TMP DP  RH WIND       PRES   REMARKS
CHATTANOOGA    CLOUDY    82  70  66 SE7       30.05S
$$

SKY/WX REPORTED AS FAIR MEANS FEW OR NO CLOUDS BELOW
12 THOUSAND FEET.




USA.gov is the U.S. government's official web portal to all federal, state and local government web resources and services.